Powrót do katalogu

OPS 4682 DEB

AktywnyPO
NORAD 38456·DEBRIS·🇺🇸 United States

Wystrzelony Apr 3, 1965 z Vandenberg Space Force Base

Loading…

Następne Przeloty (najbliższe 24 godziny)

TLE

ŚwieżeSource: Space-Track

Epoka: Sep 13, 2026, 13:43 UTC

1 38456U 65027FM  26256.57201554 -.00000246  00000-0 -87364-3 0  9991
2 38456  90.2687   6.0084 0022912 140.8374 219.4410 12.97477239101397

Śledź OPS 4682 DEB w czasie rzeczywistym z AllMySat

Download on the App Store